Time,TemperatureF,DewpointF,PressureIn,WindDirection,WindDirectionDegrees,WindSpeedMPH,WindSpeedGustMPH,Humidity,HourlyPrecipIn,Conditions,Clouds,dailyrainin,SoftwareType,DateUTC
2013-04-15 00:27:00,51.1,48.3,29.67,East,90,2.2,-999.0,90,-99.99,,,0.03,Acu-Link.com,2013-04-15 04:27:00,
2013-04-15 00:42:00,51.1,48.3,29.66,East,90,1.7,-999.0,90,-99.99,,,0.05,Acu-Link.com,2013-04-15 04:42:00,
2013-04-15 00:57:00,50.9,48.1,29.66,ESE,112,0.0,-999.0,90,-99.99,,,0.06,Acu-Link.com,2013-04-15 04:57:00,
2013-04-15 01:12:00,50.9,48.1,29.66,NNE,22,1.1,-999.0,90,-99.99,,,0.08,Acu-Link.com,2013-04-15 05:12:00,
2013-04-15 01:28:00,50.9,48.4,29.66,NE,45,1.7,-999.0,91,-99.99,,,0.09,Acu-Link.com,2013-04-15 05:28:00,
2013-04-15 01:43:00,50.9,48.4,29.66,East,90,2.2,-999.0,91,-99.99,,,0.09,Acu-Link.com,2013-04-15 05:43:00,
2013-04-15 01:58:00,50.9,48.4,29.66,East,90,0.0,-999.0,91,-99.99,,,0.12,Acu-Link.com,2013-04-15 05:58:00,
2013-04-15 02:14:00,50.9,48.4,29.66,NNW,337,1.1,-999.0,91,-99.99,,,0.13,Acu-Link.com,2013-04-15 06:14:00,
2013-04-15 02:29:00,50.9,48.4,29.66,WNW,292,1.1,-999.0,91,-99.99,,,0.14,Acu-Link.com,2013-04-15 06:29:00,
2013-04-15 02:44:00,50.9,48.4,29.65,East,90,5.3,-999.0,91,-99.99,,,0.14,Acu-Link.com,2013-04-15 06:44:00,
2013-04-15 02:59:00,50.9,48.4,29.65,NE,45,1.7,-999.0,91,-99.99,,,0.15,Acu-Link.com,2013-04-15 06:59:00,
2013-04-15 03:45:00,50.9,48.4,29.65,ESE,112,0.0,-999.0,91,-99.99,,,0.18,Acu-Link.com,2013-04-15 07:45:00,
2013-04-15 04:00:00,51.1,48.6,29.65,East,90,2.7,-999.0,91,-99.99,,,0.20,Acu-Link.com,2013-04-15 08:00:00,
2013-04-15 04:15:00,51.1,48.6,29.65,SW,225,0.0,-999.0,91,-99.99,,,0.21,Acu-Link.com,2013-04-15 08:15:00,
2013-04-15 04:31:00,51.1,48.6,29.65,NNE,22,0.0,-999.0,91,-99.99,,,0.23,Acu-Link.com,2013-04-15 08:31:00,
2013-04-15 05:01:00,51.3,49.1,29.66,NE,45,1.1,-999.0,92,-99.99,,,0.27,Acu-Link.com,2013-04-15 09:01:00,
2013-04-15 05:31:00,51.3,49.1,29.67,East,90,2.7,-999.0,92,-99.99,,,0.32,Acu-Link.com,2013-04-15 09:31:00,
2013-04-15 05:47:00,51.3,49.1,29.67,ENE,67,0.0,-999.0,92,-99.99,,,0.35,Acu-Link.com,2013-04-15 09:47:00,
2013-04-15 06:02:00,51.3,49.1,29.67,East,90,0.0,-999.0,92,-99.99,,,0.37,Acu-Link.com,2013-04-15 10:02:00,
2013-04-15 06:17:00,51.4,49.2,29.68,ESE,112,2.2,-999.0,92,-99.99,,,0.37,Acu-Link.com,2013-04-15 10:17:00,
2013-04-15 06:32:00,51.4,49.2,29.69,WSW,247,0.0,-999.0,92,-99.99,,,0.38,Acu-Link.com,2013-04-15 10:32:00,
2013-04-15 06:48:00,51.4,49.2,29.69,East,90,3.2,-999.0,92,-99.99,,,0.39,Acu-Link.com,2013-04-15 10:48:00,
2013-04-15 07:03:00,51.4,49.2,29.69,East,90,0.0,-999.0,92,-99.99,,,0.40,Acu-Link.com,2013-04-15 11:03:00,
2013-04-15 07:18:00,51.6,49.4,29.69,East,90,2.7,-999.0,92,-99.99,,,0.40,Acu-Link.com,2013-04-15 11:18:00,
2013-04-15 07:33:00,51.6,49.4,29.70,East,90,2.2,-999.0,92,-99.99,,,0.40,Acu-Link.com,2013-04-15 11:33:00,
2013-04-15 07:49:00,51.8,49.6,29.71,East,90,2.7,-999.0,92,-99.99,,,0.40,Acu-Link.com,2013-04-15 11:49:00,
2013-04-15 08:19:00,52.0,49.7,29.72,East,90,1.7,-999.0,92,-99.99,,,0.40,Acu-Link.com,2013-04-15 12:19:00,
2013-04-15 08:34:00,52.2,49.9,29.72,ENE,67,2.2,-999.0,92,-99.99,,,0.41,Acu-Link.com,2013-04-15 12:34:00,
2013-04-15 08:49:00,52.2,49.9,29.73,East,90,0.0,-999.0,92,-99.99,,,0.41,Acu-Link.com,2013-04-15 12:49:00,
2013-04-15 09:05:00,52.3,50.0,29.73,East,90,3.2,-999.0,92,-99.99,,,0.41,Acu-Link.com,2013-04-15 13:05:00,
2013-04-15 09:20:00,52.5,50.2,29.73,NW,315,0.0,-999.0,92,-99.99,,,0.41,Acu-Link.com,2013-04-15 13:20:00,
2013-04-15 09:35:00,52.7,50.4,29.74,East,90,3.2,-999.0,92,-99.99,,,0.41,Acu-Link.com,2013-04-15 13:35:00,
2013-04-15 09:51:00,52.7,50.4,29.74,ESE,112,2.7,-999.0,92,-99.99,,,0.41,Acu-Link.com,2013-04-15 13:51:00,
2013-04-15 10:06:00,52.9,50.6,29.75,ENE,67,2.7,-999.0,92,-99.99,,,0.41,Acu-Link.com,2013-04-15 14:06:00,
2013-04-15 10:36:00,53.2,50.9,29.75,ENE,67,1.7,-999.0,92,-99.99,,,0.41,Acu-Link.com,2013-04-15 14:36:00,
2013-04-15 10:51:00,53.8,51.5,29.75,NE,45,1.7,-999.0,92,-99.99,,,0.41,Acu-Link.com,2013-04-15 14:51:00,
2013-04-15 11:06:00,54.1,51.8,29.75,North,0,1.1,-999.0,92,-99.99,,,0.41,Acu-Link.com,2013-04-15 15:06:00,
2013-04-15 11:21:00,54.3,52.0,29.76,East,90,2.7,-999.0,92,-99.99,,,0.41,Acu-Link.com,2013-04-15 15:21:00,
2013-04-15 11:37:00,54.7,52.4,29.76,ESE,112,1.7,-999.0,92,-99.99,,,0.41,Acu-Link.com,2013-04-15 15:37:00,
2013-04-15 11:52:00,56.3,54.0,29.77,ENE,67,2.7,-999.0,92,-99.99,,,0.41,Acu-Link.com,2013-04-15 15:52:00,
2013-04-15 12:07:00,56.1,53.8,29.78,East,90,1.7,-999.0,92,-99.99,,,0.41,Acu-Link.com,2013-04-15 16:07:00,
2013-04-15 12:22:00,57.4,55.1,29.77,ENE,67,2.2,-999.0,92,-99.99,,,0.41,Acu-Link.com,2013-04-15 16:22:00,
2013-04-15 12:37:00,58.5,56.2,29.77,ENE,67,2.7,-999.0,92,-99.99,,,0.41,Acu-Link.com,2013-04-15 16:37:00,
2013-04-15 12:53:00,59.4,55.2,29.78,West,270,0.0,-999.0,86,-99.99,,,0.41,Acu-Link.com,2013-04-15 16:53:00,
2013-04-15 13:08:00,58.6,53.5,29.77,NE,45,1.7,-999.0,83,-99.99,,,0.41,Acu-Link.com,2013-04-15 17:08:00,
2013-04-15 13:23:00,59.0,54.5,29.77,NNE,22,0.0,-999.0,85,-99.99,,,0.41,Acu-Link.com,2013-04-15 17:23:00,
2013-04-15 13:39:00,59.5,54.3,29.77,SW,225,1.1,-999.0,83,-99.99,,,0.41,Acu-Link.com,2013-04-15 17:39:00,
2013-04-15 13:54:00,59.4,53.9,29.77,East,90,2.2,-999.0,82,-99.99,,,0.41,Acu-Link.com,2013-04-15 17:54:00,
2013-04-15 14:09:00,60.6,54.4,29.78,West,270,0.0,-999.0,80,-99.99,,,0.41,Acu-Link.com,2013-04-15 18:09:00,
2013-04-15 14:24:00,60.6,56.4,29.77,NNE,22,0.0,-999.0,86,-99.99,,,0.41,Acu-Link.com,2013-04-15 18:24:00,
2013-04-15 14:39:00,60.4,55.9,29.78,NW,315,2.2,-999.0,85,-99.99,,,0.41,Acu-Link.com,2013-04-15 18:39:00,
2013-04-15 14:55:00,60.3,56.1,29.78,West,270,0.0,-999.0,86,-99.99,,,0.41,Acu-Link.com,2013-04-15 18:55:00,
2013-04-15 15:10:00,60.1,56.2,29.78,South,180,0.0,-999.0,87,-99.99,,,0.41,Acu-Link.com,2013-04-15 19:10:00,
2013-04-15 15:25:00,60.6,55.4,29.77,SSW,202,1.1,-999.0,83,-99.99,,,0.41,Acu-Link.com,2013-04-15 19:25:00,
2013-04-15 15:40:00,60.3,55.4,29.78,WSW,247,1.1,-999.0,84,-99.99,,,0.41,Acu-Link.com,2013-04-15 19:40:00,
2013-04-15 16:11:00,60.4,56.2,29.77,ENE,67,1.7,-999.0,86,-99.99,,,0.41,Acu-Link.com,2013-04-15 20:11:00,
2013-04-15 16:26:00,60.4,55.9,29.78,West,270,0.0,-999.0,85,-99.99,,,0.41,Acu-Link.com,2013-04-15 20:26:00,
2013-04-15 16:42:00,60.3,56.1,29.78,NNW,337,0.0,-999.0,86,-99.99,,,0.41,Acu-Link.com,2013-04-15 20:42:00,
2013-04-15 16:57:00,60.3,55.8,29.78,ESE,112,1.7,-999.0,85,-99.99,,,0.41,Acu-Link.com,2013-04-15 20:57:00,
2013-04-15 17:12:00,60.3,55.1,29.78,East,90,2.7,-999.0,83,-99.99,,,0.41,Acu-Link.com,2013-04-15 21:12:00,
2013-04-15 17:27:00,59.9,54.1,29.78,ENE,67,2.2,-999.0,81,-99.99,,,0.41,Acu-Link.com,2013-04-15 21:27:00,
2013-04-15 17:42:00,59.4,53.9,29.79,East,90,2.7,-999.0,82,-99.99,,,0.41,Acu-Link.com,2013-04-15 21:42:00,
2013-04-15 17:58:00,59.0,54.5,29.79,ESE,112,2.7,-999.0,85,-99.99,,,0.41,Acu-Link.com,2013-04-15 21:58:00,
2013-04-15 18:13:00,59.0,54.2,29.80,ENE,67,2.7,-999.0,84,-99.99,,,0.41,Acu-Link.com,2013-04-15 22:13:00,
2013-04-15 18:28:00,59.0,54.2,29.80,ESE,112,0.0,-999.0,84,-99.99,,,0.41,Acu-Link.com,2013-04-15 22:28:00,
2013-04-15 18:44:00,59.0,54.8,29.80,NNE,22,0.0,-999.0,86,-99.99,,,0.41,Acu-Link.com,2013-04-15 22:44:00,
2013-04-15 18:59:00,59.2,54.7,29.81,North,0,1.7,-999.0,85,-99.99,,,0.41,Acu-Link.com,2013-04-15 22:59:00,
2013-04-15 19:14:00,59.0,54.5,29.81,ESE,112,1.7,-999.0,85,-99.99,,,0.41,Acu-Link.com,2013-04-15 23:14:00,
2013-04-15 19:29:00,58.6,54.1,29.81,ENE,67,3.7,-999.0,85,-99.99,,,0.41,Acu-Link.com,2013-04-15 23:29:00,
2013-04-15 19:44:00,58.5,54.0,29.82,East,90,2.7,-999.0,85,-99.99,,,0.41,Acu-Link.com,2013-04-15 23:44:00,
2013-04-15 19:59:00,58.1,53.6,29.82,East,90,1.7,-999.0,85,-99.99,,,0.41,Acu-Link.com,2013-04-15 23:59:00,
2013-04-15 20:15:00,57.9,53.4,29.83,ENE,67,2.2,-999.0,85,-99.99,,,0.41,Acu-Link.com,2013-04-16 00:15:00,
2013-04-15 20:30:00,57.6,53.1,29.84,ESE,112,2.2,-999.0,85,-99.99,,,0.41,Acu-Link.com,2013-04-16 00:30:00,
2013-04-15 20:45:00,57.6,53.4,29.84,East,90,2.7,-999.0,86,-99.99,,,0.41,Acu-Link.com,2013-04-16 00:45:00,
2013-04-15 21:00:00,57.2,53.0,29.85,ENE,67,2.7,-999.0,86,-99.99,,,0.41,Acu-Link.com,2013-04-16 01:00:00,
2013-04-15 21:15:00,57.0,53.2,29.86,East,90,1.7,-999.0,87,-99.99,,,0.41,Acu-Link.com,2013-04-16 01:15:00,
2013-04-15 21:46:00,56.7,52.9,29.86,East,90,2.7,-999.0,87,-99.99,,,0.41,Acu-Link.com,2013-04-16 01:46:00,
2013-04-15 22:01:00,56.5,52.7,29.87,ESE,112,2.7,-999.0,87,-99.99,,,0.41,Acu-Link.com,2013-04-16 02:01:00,
2013-04-15 22:16:00,56.3,52.5,29.87,ENE,67,3.2,-999.0,87,-99.99,,,0.41,Acu-Link.com,2013-04-16 02:16:00,
2013-04-15 22:32:00,56.1,52.6,29.88,East,90,1.7,-999.0,88,-99.99,,,0.41,Acu-Link.com,2013-04-16 02:32:00,
2013-04-15 22:47:00,55.9,52.7,29.89,NE,45,0.0,-999.0,89,-99.99,,,0.41,Acu-Link.com,2013-04-16 02:47:00,
2013-04-15 23:02:00,55.6,52.4,29.89,East,90,0.0,-999.0,89,-99.99,,,0.41,Acu-Link.com,2013-04-16 03:02:00,
2013-04-15 23:18:00,55.6,52.1,29.89,East,90,2.2,-999.0,88,-99.99,,,0.41,Acu-Link.com,2013-04-16 03:18:00,
2013-04-15 23:33:00,55.4,52.2,29.89,ENE,67,0.0,-999.0,89,-99.99,,,0.41,Acu-Link.com,2013-04-16 03:33:00,
2013-04-15 23:48:00,55.4,52.5,29.89,ENE,67,0.0,-999.0,90,-99.99,,,0.41,Acu-Link.com,2013-04-16 03:48:00,